TimeCDT,TemperatureF,Dew PointF,Humidity,Sea Level PressureIn,VisibilityMPH,Wind Direction,Wind SpeedMPH,Gust SpeedMPH,PrecipitationIn,Events,Conditions,WindDirDegrees,DateUTC
12:53 AM,60.1,41.0,49,29.63,10.0,WSW,5.8,-,N/A,,Clear,240,2012-10-21 05:53:00
1:53 AM,55.9,42.1,60,29.62,10.0,Calm,Calm,-,N/A,,Clear,0,2012-10-21 06:53:00
2:53 AM,54.0,43.0,66,29.62,10.0,SSW,6.9,-,N/A,,Clear,200,2012-10-21 07:53:00
3:53 AM,52.0,44.1,74,29.64,10.0,SW,8.1,-,N/A,,Clear,220,2012-10-21 08:53:00
4:53 AM,50.0,43.0,77,29.64,10.0,South,3.5,-,N/A,,Clear,170,2012-10-21 09:53:00
5:53 AM,46.9,43.0,86,29.64,10.0,South,3.5,-,N/A,,Clear,190,2012-10-21 10:53:00
6:53 AM,39.9,37.9,93,29.65,10.0,SW,3.5,-,N/A,,Clear,220,2012-10-21 11:53:00
7:53 AM,37.9,37.0,97,29.68,9.0,North,3.5,-,N/A,,Clear,10,2012-10-21 12:53:00
8:53 AM,44.1,41.0,89,29.70,10.0,Calm,Calm,-,N/A,,Clear,0,2012-10-21 13:53:00
9:53 AM,53.1,45.0,74,29.70,10.0,ESE,3.5,-,N/A,,Clear,110,2012-10-21 14:53:00
10:53 AM,62.1,46.9,58,29.68,10.0,Variable,3.5,-,N/A,,Clear,0,2012-10-21 15:53:00
11:53 AM,72.0,45.0,38,29.66,10.0,Calm,Calm,-,N/A,,Clear,0,2012-10-21 16:53:00
12:53 PM,75.9,46.0,35,29.65,10.0,Variable,4.6,-,N/A,,Clear,0,2012-10-21 17:53:00
1:53 PM,78.1,46.0,32,29.64,10.0,ENE,8.1,-,N/A,,Clear,70,2012-10-21 18:53:00
2:53 PM,81.0,46.9,30,29.61,10.0,East,9.2,-,N/A,,Clear,90,2012-10-21 19:53:00
3:53 PM,82.0,46.0,28,29.62,10.0,East,4.6,-,N/A,,Clear,90,2012-10-21 20:53:00
4:53 PM,78.1,55.0,45,29.64,10.0,ESE,11.5,-,N/A,,Clear,120,2012-10-21 21:53:00
5:53 PM,73.0,57.0,57,29.66,10.0,ESE,9.2,-,N/A,,Clear,120,2012-10-21 22:53:00
6:53 PM,66.9,55.0,66,29.70,10.0,ESE,4.6,-,N/A,,Clear,110,2012-10-21 23:53:00
7:53 PM,57.0,52.0,83,29.73,10.0,Calm,Calm,-,N/A,,Clear,0,2012-10-22 00:53:00
8:53 PM,57.0,53.1,87,29.73,10.0,North,9.2,-,N/A,,Clear,350,2012-10-22 01:53:00
9:53 PM,55.9,54.0,93,29.73,9.0,Calm,Calm,-,N/A,,Clear,0,2012-10-22 02:53:00
10:53 PM,57.9,55.9,93,29.73,8.0,NNE,9.2,-,N/A,,Clear,20,2012-10-22 03:53:00
11:53 PM,55.9,51.1,84,29.72,10.0,North,15.0,-,N/A,,Clear,360,2012-10-22 04:53:00